Limon, CO

1:28 PM MDT on September 22, 2017 (GMT -0600)
Limon Municipal

Weather History for KLIC - November, 2012

Change the Weather History Date:

Wednesday, November 21, 2012

  Actual Average Record
Temperature  
Mean Temperature 47 °F -  
Max Temperature 72 °F - 72 °F (2012)
Min Temperature 21 °F - 7 °F (2007)
Degree Days  
Heating Degree Days 18    
Month to date heating degree days 532  
Cooling Degree Days 0    
Month to date cooling degree days 0  
Moisture  
Dew Point 14 °F    
Average Humidity 36    
Maximum Humidity 78    
Minimum Humidity 7    
Precipitation  
Precipitation 0.00 in - 0.12 in (2013)
Month to date precipitation 0.22  
Year to date precipitation 9.51  
Sea Level Pressure  
Sea Level Pressure 29.92 in    
Wind  
Wind Speed 7 mph (WNW)    
Max Wind Speed 16 mph    
Max Gust Speed 20 mph    
Visibility 10 miles    
Events      
T = Trace of Precipitation, MM = Missing Value Source: NWS Daily Summary

Daily Weather History Graph

Daily Weather History Graph

Search for Another Location

Airport or City:

Trip Planner

Search our weather history database for the weather conditions in past years. The results will help you decide how hot, cold, wet, or windy it might be!

Date:

Astronomy

Nov. 21, 2012 Rise Set
Actual Time 6:45 AM MST 4:35 PM MST
Civil Twilight 6:16 AM MST 5:04 PM MST
Nautical Twilight 5:43 AM MST 5:37 PM MST
Astronomical Twilight 5:11 AM MST 6:09 PM MST
Moon 12:51 PM MST (11/21) 12:09 AM MST (11/21)
Length of Visible Light 10h 48m
Length of Day
9h 50m
Waxing Gibbous, 62% of the Moon is Illuminated
Nov 21
Waxing Gibbous
Nov 28
Full
Dec 6
Last Quarter
Dec 13
New
Dec 19
First Quarter

Hourly Weather History & Observations

Time (MST) Temp. Windchill Dew Point Humidity Pressure Visibility Wind Dir Wind Speed Gust Speed Precip Events Conditions
12:55 AM 23.0 °F 14.7 °F 17.1 °F 78% 30.04 in 10.0 mi North 6.9 mph - N/A   Clear
1:55 AM 24.1 °F 16.0 °F 17.1 °F 75% 30.02 in 10.0 mi NNW 6.9 mph - N/A   Clear
2:55 AM 23.0 °F 15.8 °F 17.1 °F 78% 30.01 in 10.0 mi NNW 5.8 mph - N/A   Clear
3:55 AM 23.0 °F 17.0 °F 17.1 °F 78% 30.01 in 10.0 mi North 4.6 mph - N/A   Clear
5:55 AM 27.0 °F - 16.0 °F 63% 30.06 in 10.0 mi Calm Calm - N/A   Clear
6:55 AM 32.0 °F 24.8 °F 17.1 °F 54% 30.09 in 10.0 mi NNW 8.1 mph - N/A   Clear
7:55 AM 43.0 °F 40.3 °F 19.0 °F 38% 30.06 in 10.0 mi NNW 4.6 mph - N/A   Clear
8:55 AM 53.1 °F - 19.9 °F 27% 30.02 in 10.0 mi NW 9.2 mph - N/A   Clear
9:55 AM 64.0 °F - 18.0 °F 17% 29.98 in 10.0 mi WNW 6.9 mph - N/A   Clear
10:55 AM 69.1 °F - 12.9 °F 11% 29.94 in 10.0 mi WNW 9.2 mph - N/A   Clear
11:55 AM 70.0 °F - 7.0 °F 9% 29.90 in 10.0 mi SW 8.1 mph - N/A   Clear
12:55 PM 72.0 °F - 7.0 °F 8% 29.86 in 10.0 mi SW 4.6 mph - N/A   Clear
1:55 PM 72.0 °F - 9.0 °F 9% 29.83 in 10.0 mi South 8.1 mph - N/A   Clear
2:55 PM 71.1 °F - 3.9 °F 7% 29.83 in 10.0 mi SSW 8.1 mph - N/A   Clear
3:55 PM 66.0 °F - 6.1 °F 9% 29.83 in 10.0 mi SSW 6.9 mph - N/A   Clear
4:55 PM 59.0 °F - 10.9 °F 15% 29.85 in 10.0 mi South 12.7 mph - N/A   Clear
5:55 PM 44.1 °F 40.8 °F 14.0 °F 30% 29.90 in 10.0 mi ENE 5.8 mph - N/A   Clear
6:55 PM 51.1 °F - 12.9 °F 22% 29.86 in 10.0 mi SSW 8.1 mph - N/A   Clear
7:55 PM 37.9 °F 35.5 °F 12.9 °F 36% 29.86 in 10.0 mi South 3.5 mph - N/A   Clear
8:55 PM 30.9 °F 26.2 °F 15.1 °F 52% 29.86 in 10.0 mi NW 4.6 mph - N/A   Clear
9:55 PM 39.9 °F 32.9 °F 16.0 °F 38% 29.79 in 10.0 mi West 11.5 mph - N/A   Clear
10:55 PM 41.0 °F 33.9 °F 16.0 °F 36% 29.77 in 10.0 mi WNW 12.7 mph - N/A   Clear
11:55 PM 39.0 °F 33.4 °F 12.9 °F 34% 29.78 in 10.0 mi North 8.1 mph - N/A   Clear